User: anonymous   Login
Location: Saint-Usage
(47.1052°N, 5.2587°E)
Time: 22:14:28
(UTC+01:00)
Language:

NUDT-PHONESAT - Orbit

View from above orbital plane
View from above orbital plane
View from above satellite
View from above satellite

Ground track
Ground track

The orbit data is extracted from the following two-line orbital elements,

1 40900U 15049B   21339.52206831  .00008461  00000-0  30837-3 0  9990
2 40900  97.4142 352.6587 0009377 253.2885 235.2622 15.28392978344936
Epoch (UTC): 05 December 2021 12:31:46
Eccentricity: 0.0009377
inclination: 97.4142°
perigee height: 474 km
apogee height: 487 km
right ascension of ascending node: 352.6587°
argument of perigee: 253.2885°
revolutions per day: 15.28392978
mean anomaly at epoch: 235.2622°
orbit number at epoch: 34493

The dashed part of the orbit path shows where the satellite is in the earth's shadow,  

DLR